Central Park, NY

11:38 EDT dnia 25-marzec-2017 (GMT -0400)
Central Park

Pogoda Historia dla KNYC - marzec, 2017

Change the Weather History Date:

Poniedziałek, marzec 20, 2017

  Actual Average Record
Temperature  
Temperatura średnia 43 ° F 44 ° F  
Temperatura maksymalna 52 ° F 51 ° F 83 ° F (1945)
Temperatura minimalna 33 ° F 36 ° F 11 ° F (1885)
Degree Days  
stopnio-dni grzewczych 22 21  
Month to date heating degree days 563 486  
Since 1 July heating degree days 3546 4008  
Cooling Degree Days 0 0  
Month to date cooling degree days 0 0  
Year to date cooling degree days 0 0  
Moisture  
Punkt rosy 15 ° F    
Average Humidity 33    
Maximum Humidity 47    
Minimum Humidity 18    
Opady  
Opady 0.00 cali 0.15 cali 1.93 cali (1913)
Month to date precipitation 2.60 2.68  
Year to date precipitation 9.91 9.42  
śnieg  
śnieg 0.00 cali 0.10 cali 4.70 cali (1958)
Month to date snowfall 9.7 3.1  
Since 1 July snowfall 30.2 24.4  
Głębokość pokrywy śnieżnej 0.00 cali    
Ciśnienie na poziomie morza  
Ciśnienie na poziomie morza 30.08 cali    
Wiatr  
Prędkość wiatru 5 mph (PnZd)    
Maksymalna prędkość wiatru 14 mph    
Max Gust Speed 22 mph    
Widzialność 10 mil    
Wydarzenia      
T = Trace of Precipitation, MM = Missing Value Source: NWS Daily Summary

Daily Weather History Graph

Daily Weather History Graph

Search for Another Location

Airport or City:

Trip Planner

Search our weather history database for the weather conditions in past years. The results will help you decide how hot, cold, wet, or windy it might be!

Date:

Astronomia

Mar. 20, 2017 Wschód Zachów
Aktualny czas 06:58 EDT 19:08 EDT
Zmierzch cywilny 06:31 EDT 19:35 EDT
Zmierzch żeglarski 05:59 EDT 20:07 EDT
świt/zmierzch astronomiczny 05:27 EDT 20:40 EDT
Księżyc 01:50 EDT (3/20) 11:54 EDT (3/20)
całkowite oświetlenie 13h 04m
Długość dnia
12h 09m
Zmniejszający się Księżyc, 50% of the Moon is Illuminated
Marzec 20
Zmniejszający się Księżyc
Marzec 20
Ostatnia kwadra
Marzec 27
Nowy
Kwiecień 3
Pierwsza kwadra
Kwiecień 11
Pełnia Księżyca

Hourly Weather History & Observations

czas (EDT) Temp. czynnik chłodzący wiatru Punkt rosy Wilgotność Ciśnienie Widzialność Wind Dir Prędkość wiatru prędkość w porywie Precip Wydarzenia Warunki pogodowe
12:51 AM 37.9 ° F 33.5 ° F 15.1 ° F 39% 30.14 cali 10.0 mi PnZd 5.8 mph - N/A   pogodnie
1:51 AM 37.0 ° F 34.5 ° F 15.1 ° F 41% 30.14 cali 10.0 mi zmienny 3.5 mph - N/A   pogodnie
2:51 AM 37.0 ° F 34.5 ° F 15.1 ° F 41% 30.13 cali 10.0 mi zmienny 3.5 mph - N/A   pogodnie
3:51 AM 36.0 ° F 29.0 ° F 14.0 ° F 41% 30.12 cali 10.0 mi PnPnZd 9.2 mph 17.3 mph N/A   pogodnie
4:51 AM 34.0 ° F 31.0 ° F 16.0 ° F 48% 30.12 cali 10.0 mi ZdPnZd 3.5 mph - N/A   pogodnie
5:51 AM 34.0 ° F 28.8 ° F 15.1 ° F 46% 30.13 cali 10.0 mi ZdPnZd 5.8 mph - N/A   pogodnie
6:51 AM 33.1 ° F 26.1 ° F 15.1 ° F 48% 30.14 cali 10.0 mi północny 8.1 mph - N/A   pogodnie
7:51 AM 34.0 ° F 28.8 ° F 16.0 ° F 48% 30.16 cali 10.0 mi zmienny 5.8 mph - N/A   pogodnie
8:51 AM 35.1 ° F 31.0 ° F 17.1 ° F 48% 30.15 cali 10.0 mi zmienny 4.6 mph - N/A   pogodnie
9:51 AM 37.0 ° F 32.4 ° F 17.1 ° F 44% 30.15 cali 10.0 mi zmienny 5.8 mph - N/A   pogodnie
10:51 AM 39.9 ° F 35.8 ° F 17.1 ° F 40% 30.13 cali 10.0 mi zmienny 5.8 mph - N/A   pogodnie
11:51 AM 44.1 ° F 38.6 ° F 12.9 ° F 28% 30.10 cali 10.0 mi północny 10.4 mph 17.3 mph N/A   pogodnie
12:51 PM 46.0 ° F - 14.0 ° F 28% 30.09 cali 10.0 mi północny - - N/A   pogodnie
1:51 PM 48.0 ° F - 12.9 ° F 24% 30.07 cali 10.0 mi zmienny 6.9 mph - N/A   pogodnie
2:51 PM 48.9 ° F - 12.0 ° F 23% 30.06 cali 10.0 mi zmienny 3.5 mph - N/A   pogodnie
3:51 PM 50.0 ° F - 10.0 ° F 20% 30.04 cali 10.0 mi zmienny 3.5 mph - N/A   pogodnie
4:51 PM 50.0 ° F - 8.1 ° F 18% 30.01 cali 10.0 mi północny - - N/A   przewaga chmur
5:51 PM 51.1 ° F - 10.0 ° F 19% 29.99 cali 10.0 mi ZdPnZd 6.9 mph - N/A   przewaga chmur
6:51 PM 50.0 ° F - 10.9 ° F 21% 29.98 cali 10.0 mi cisza cisza - N/A   pochmurno
7:51 PM 50.0 ° F - 16.0 ° F 26% 29.98 cali 10.0 mi PnZd 4.6 mph - N/A   przewaga chmur
8:51 PM 48.0 ° F - 18.0 ° F 30% 29.99 cali 10.0 mi zachodni 4.6 mph - N/A   niewielkie zachmurzenie
9:51 PM 46.0 ° F 43.9 ° F 21.0 ° F 37% 30.00 cali 10.0 mi zmienny 4.6 mph - N/A   pochmurno
10:51 PM 46.0 ° F - 21.0 ° F 37% 30.00 cali 10.0 mi cisza cisza - N/A   pochmurno
11:51 PM 45.0 ° F 41.2 ° F 21.9 ° F 40% 29.99 cali 10.0 mi ZdPnZd 6.9 mph - N/A   pochmurno